Terminal Aerodrome Forecast
Issued by NWS

Current Version | Previous Version | Graphics & Text | Print | Product List | Glossary On
Versions: 1 2 3 4 5 6 7 8 9 10 11 12 13 14 15 16 17 18 19 20 21 22 23 24 25 26 27 28
729
FTUS41 KILN 131740
TAFLUK
TAF
KLUK 131740Z 1318/1418 19014G22KT P6SM BKN080
     FM132200 22017G28KT P6SM OVC070
     FM140300 25012G22KT P6SM OVC040
     FM140800 30011KT P6SM OVC028
     FM141200 35007KT P6SM SCT030=

USA.gov is the U.S. government's official web portal to all federal, state and local government web resources and services.